Temp_Advection
nan nan nan nan nan nan nan nan nan nan nan nan nan nan nan nan nan nan nan nan nan nan nan nan nan nan nan nan nan nan nan nan nan nan nan nan nan nan nan nan nan nan nan nan nan nan nan
nan 0 0 0 0 0 1 1 0 0 0 0 0 0 0 0 -0 0 -0 -0 0 1 1 0 0 -0 -1 -1 1 1 0 0 0 0 -0 -0 0 -1 -1 -0 0 0 -0 0 -0 -0 nan
nan -0 0 1 0 1 1 0 0 0 0 -0 -0 0 0 0 0 0 -0 -0 -0 -0 1 1 2 -1 -3 0 2 1 0 -0 0 0 0 0 0 -0 -1 -0 0 -0 -0 -0 -0 -0 nan
nan -0 -0 1 1 1 1 0 0 0 0 -0 0 0 1 0 0 0 -0 -0 0 0 0 1 1 -1 -1 2 1 1 0 0 0 0 0 0 0 -1 -0 -0 -0 -0 -0 0 0 -0 nan
nan 1 1 0 0 1 0 0 -0 0 0 0 1 1 0 0 0 0 -0 0 0 1 1 0 0 -2 0 2 1 0 0 0 0 0 0 0 -0 -1 -1 -0 -0 0 0 0 -0 -0 nan
nan 1 1 1 0 0 0 -0 0 0 0 0 0 0 1 0 0 0 0 -0 -0 0 1 -0 -1 -1 0 1 1 1 0 0 0 0 0 -0 -1 -1 -0 0 -0 -0 -0 0 -0 -0 nan
nan 0 1 0 0 0 0 0 -0 -0 0 0 0 0 0 -0 1 0 0 -0 -0 -1 -1 -0 0 0 1 1 0 0 0 0 0 -1 -1 -1 -1 0 0 0 -0 0 0 -0 -0 0 nan
nan 0 0 0 0 0 0 0 -0 0 0 -0 0 0 0 0 0 1 -1 -4 -0 1 1 1 0 1 1 1 0 0 0 -0 -1 -0 -0 -0 0 -0 0 -0 0 0 -0 -0 -0 -0 nan
nan 0 0 0 0 0 0 -0 0 0 0 -0 -0 0 0 -0 0 0 -0 -0 1 0 -0 -1 -0 0 0 -0 -0 -0 -0 -1 -1 -0 -0 0 -0 0 -0 -0 -0 0 0 0 0 -0 nan
nan 0 0 0 0 0 0 0 0 0 0 0 -0 -0 -0 0 -0 -0 -0 0 0 -0 -0 -1 -0 0 0 -0 -0 0 -0 -0 -0 -0 -0 0 -0 -0 -0 0 0 -0 0 -0 -0 -0 nan
nan 0 0 0 0 0 0 0 0 0 0 0 0 -0 -0 -0 0 -0 0 0 0 -0 -0 -1 -0 -0 -0 -0 0 0 0 -0 -0 0 -0 -0 0 -0 0 0 0 0 -0 -0 -0 -0 nan
nan -0 -0 0 0 0 0 0 0 0 0 0 0 0 0 -0 -0 0 0 0 -0 -1 0 -0 -0 -0 -0 -0 0 -0 -0 -1 -0 -0 -0 0 0 0 -0 0 -0 -0 -0 -1 -0 -0 nan
nan -0 -0 0 0 0 0 0 0 0 0 0 0 0 0 -0 -0 -0 -0 -0 -1 0 -0 0 -0 0 -0 -0 -0 -0 -0 -0 -0 -0 -0 -1 -0 -0 0 -0 -0 -0 -0 -0 0 -0 nan
nan 0 0 0 0 0 0 0 0 0 0 0 0 0 0 0 0 0 -0 -1 -0 -0 -0 -0 0 0 -0 0 0 -0 -0 0 0 -0 -0 0 -0 -0 0 -0 -0 -0 -0 -0 -0 0 nan
nan -0 0 0 0 0 0 0 0 0 0 0 0 0 0 0 0 -0 -0 -1 -0 -0 -0 -0 0 -0 0 0 -0 -0 -0 -0 0 0 -0 -0 0 -0 -0 -0 -0 -0 0 -0 -0 -0 nan
nan 0 0 0 0 0 0 0 0 0 0 0 0 0 0 0 0 -1 -1 0 0 -0 0 -0 -0 0 0 -0 -0 -0 -0 -0 -0 0 -0 -0 0 -0 -0 -0 -0 0 -0 -0 0 0 nan
nan 0 0 0 0 0 0 0 0 0 0 0 0 -0 0 0 -0 -2 -1 0 -0 -0 -0 -0 -0 -0 0 -0 -0 0 -0 -0 -0 -0 0 -0 -0 -0 -0 0 0 0 0 -0 0 0 nan
nan 0 0 -0 -0 -0 -0 0 0 0 0 0 -0 -0 0 0 -1 -1 0 0 0 0 -0 -0 0 0 -0 -0 -0 0 0 0 -0 -0 -0 -0 -0 0 -0 0 -0 -0 0 -0 -0 -0 nan
nan -1 -0 -0 -0 -0 -0 -0 -0 -0 -0 -0 -0 -0 -0 -0 -1 0 0 0 0 0 0 -0 0 0 -0 0 -0 0 0 0 -0 -0 -0 -0 -0 0 -0 0 -0 0 0 0 -0 0 nan
nan -1 -1 -1 -0 -0 -0 -0 -0 -0 -0 -0 -0 -0 -0 -2 -1 -0 0 0 0 -0 -0 -0 0 0 0 -0 0 -0 -0 -0 0 0 0 -0 -0 -0 0 0 0 0 0 -0 -0 -0 nan
nan 0 -1 -1 -1 -0 -0 -0 -0 -0 -0 -0 -1 -0 -0 -0 -0 0 0 0 0 -0 0 0 0 -0 0 0 0 0 0 0 0 0 -0 0 0 0 -0 0 -0 -0 0 -0 -0 -0 nan
nan 1 0 -0 -1 -0 -0 -0 -0 -0 -0 -0 -0 0 -0 -0 0 -0 -0 -0 -0 -0 -0 0 0 0 0 0 -0 -0 -0 0 0 0 0 0 0 -0 -0 -0 0 -0 -0 -0 -0 0 nan
nan -0 0 -0 -1 -1 -1 -1 -1 -1 -1 -0 -0 -0 -0 -0 -0 0 -0 -0 -0 0 -0 0 0 -0 0 -0 -1 -0 0 0 0 -0 0 0 0 -0 -0 -0 -0 -0 -0 -0 0 -0 nan
nan -0 0 -0 -1 -1 -1 -1 -1 -1 -1 -0 -0 -0 -0 0 -0 -0 -0 0 -0 0 0 0 0 -0 -0 0 -0 0 1 0 0 0 0 -0 0 -0 -0 -0 -0 -0 0 -0 -0 -0 nan
nan -0 0 0 0 -0 -1 -1 -0 -1 -0 -0 -0 -0 -0 0 -0 -0 -0 -0 -0 0 0 -0 -0 0 -0 -0 -0 -0 0 0 -0 -0 0 0 0 0 0 -0 -1 -0 -0 -0 -0 -0 nan
nan 0 0 0 0 0 -0 -0 -0 -0 -0 -0 -0 -0 -0 0 -0 -0 0 0 0 0 -0 0 0 0 0 -0 0 -0 -0 0 0 -0 -0 0 0 -0 0 -0 -1 -0 0 0 -0 -0 nan
nan 0 0 0 0 0 0 0 0 -0 -0 -0 -0 -0 -0 -0 -0 0 0 -0 -0 0 -0 -0 0 0 0 -0 0 0 -0 0 0 0 -0 -0 -0 -0 -0 0 -0 -0 -0 -0 0 -0 nan
nan -0 0 0 -0 -0 0 0 0 0 -0 -0 -0 -0 -0 -0 -0 -0 -0 0 0 0 -0 -0 -0 0 -0 0 0 0 0 0 -0 0 0 -0 -0 0 0 0 -0 -0 0 -0 -0 -0 nan
nan nan nan nan nan nan nan nan nan nan nan nan nan nan nan nan nan nan nan nan nan nan nan nan nan nan nan nan nan nan nan nan nan nan nan nan nan nan nan nan nan nan nan nan nan nan nan
Wind_Speed
19 19 17 20 21 21 18 18 21 26 31 26 27 26 26 31 31 25 25 24 25 21 21 28 30 27 32 18 11 9 15 17 21 19 20 18 17 9 5 6 4 5 2 7 7 8 8
21 20 19 18 20 21 18 18 22 24 28 26 27 24 27 33 26 26 31 28 22 32 36 29 30 38 26 19 15 13 13 16 20 19 18 19 8 14 11 5 5 5 9 5 8 7 6
22 22 19 18 18 19 18 16 19 22 23 23 29 32 26 30 27 22 31 29 27 32 39 35 30 28 34 14 19 19 17 15 17 19 19 17 16 4 7 6 8 6 5 4 8 5 4
24 22 21 18 17 18 18 15 17 21 24 22 21 24 24 23 23 25 25 25 27 30 36 35 28 34 18 21 23 22 21 21 20 15 19 14 11 17 6 12 6 5 5 3 2 4 4
25 23 21 18 17 16 16 13 13 16 20 24 27 29 22 21 22 27 24 18 29 32 32 26 28 36 7 17 19 18 19 23 21 18 18 13 12 9 6 5 5 7 3 1 1 2 3
25 24 21 19 18 17 16 13 9 9 16 20 23 27 29 16 16 17 21 26 27 12 16 25 21 20 7 10 16 17 18 19 20 18 13 7 7 5 5 5 4 3 3 1 1 4 3
28 25 21 19 18 17 15 13 10 5 5 13 18 22 25 25 24 8 12 15 15 27 45 25 18 19 11 17 15 14 16 15 12 11 5 8 9 5 3 2 3 6 3 3 2 2 3
28 27 22 20 20 18 16 14 11 8 4 6 9 12 17 14 18 22 39 32 20 9 15 30 28 27 22 15 16 14 10 6 6 5 2 7 5 1 0 5 7 6 4 3 2 1 3
27 26 24 21 20 18 18 17 14 11 8 6 7 8 10 9 11 7 13 17 14 10 7 20 19 21 13 20 13 16 10 9 8 7 7 6 1 1 4 5 7 5 4 2 1 5 2
26 26 25 23 21 19 16 17 18 16 12 8 7 7 8 10 5 9 10 9 5 6 5 13 11 11 11 7 9 17 10 5 6 5 4 6 4 4 5 5 3 3 0 1 3 4 2
25 25 25 24 22 20 18 15 15 16 16 15 11 9 7 7 7 6 6 6 3 1 6 10 9 10 12 8 2 10 12 10 4 3 4 2 2 5 6 1 2 3 1 2 2 3 4
22 24 24 25 24 23 20 16 14 12 12 14 14 13 12 8 6 6 6 4 2 6 2 5 4 7 7 10 5 5 8 10 5 7 7 2 1 2 2 2 3 4 4 6 3 2 2
20 22 23 24 24 24 23 20 16 12 9 9 12 13 13 10 7 4 4 2 5 7 3 5 3 4 1 6 6 6 5 6 3 5 4 6 3 3 1 3 2 4 5 3 5 4 5
18 20 22 23 24 24 24 22 19 13 10 8 8 13 13 12 8 4 3 6 11 4 4 3 1 4 5 4 3 4 2 3 5 4 4 4 5 2 1 1 3 2 4 4 5 1 5
16 18 20 22 23 24 25 25 21 15 10 9 7 6 17 13 11 5 2 7 5 4 1 0 3 3 4 2 2 3 2 1 1 1 4 4 1 1 2 1 3 2 1 3 4 2 1
14 16 18 20 22 24 25 26 24 19 11 8 6 3 17 13 10 7 7 5 1 2 3 3 3 2 2 3 2 2 0 2 1 1 1 3 3 2 1 1 3 2 5 3 2 1 4
13 14 16 18 20 22 24 25 26 22 16 8 4 1 15 13 7 11 4 2 4 2 3 2 2 3 2 3 2 1 1 1 3 2 2 2 2 2 2 5 6 2 1 3 2 2 3
15 14 15 17 19 20 22 25 26 25 20 8 3 3 14 9 6 4 3 5 4 2 2 3 1 1 2 4 4 4 4 1 4 4 2 2 3 3 7 0 2 2 4 5 4 4 4
15 14 12 14 16 19 20 22 25 25 23 11 3 4 10 7 3 2 1 1 0 3 3 2 1 2 2 2 3 2 2 3 6 2 2 2 1 2 6 3 2 4 4 4 3 3 7
13 14 14 11 12 14 17 19 20 22 20 11 4 3 8 10 8 5 2 1 2 0 1 1 2 2 2 2 1 2 2 1 5 3 2 3 1 4 6 3 2 4 5 6 6 4 3
13 13 15 15 12 12 14 16 19 19 17 10 6 3 3 2 5 4 3 2 1 2 2 2 1 3 3 3 2 4 3 1 2 3 3 4 3 3 6 10 7 14 14 9 15 15 10
13 13 13 15 16 14 13 14 15 16 14 9 4 2 2 2 1 2 3 3 3 1 3 3 3 2 5 4 6 5 4 3 5 1 5 1 3 1 5 8 6 8 15 17 18 18 20
13 13 12 14 15 16 15 15 15 15 14 7 6 4 1 1 1 3 3 3 4 1 2 2 4 0 3 8 12 13 11 8 4 7 6 4 3 1 5 2 8 8 9 14 9 6 18
12 13 12 11 14 15 15 13 15 14 14 11 9 5 2 2 1 3 3 4 4 4 2 2 5 4 2 3 11 11 11 12 9 8 7 5 4 1 4 7 3 5 1 6 12 9 16
14 13 12 13 12 13 14 13 12 13 12 11 10 7 3 2 4 4 6 5 4 5 4 5 9 6 4 6 3 6 3 1 1 1 5 3 4 2 1 2 9 6 1 4 6 8 13
17 16 14 12 12 11 11 11 10 9 10 10 8 8 5 3 4 2 2 3 3 3 2 4 4 4 5 3 2 2 4 2 2 3 6 6 4 4 1 2 5 3 3 1 1 6 2
22 20 19 17 13 13 12 11 9 9 10 11 9 9 5 4 3 3 2 3 3 1 2 3 3 5 6 2 3 4 4 3 3 4 4 4 3 11 8 5 9 8 10 3 3 5 3
23 23 25 22 19 17 15 13 10 8 10 11 10 8 6 4 13 12 6 7 7 4 2 0 1 2 2 3 3 3 3 4 1 4 6 7 7 5 6 6 9 10 5 6 4 5 9
19 20 22 23 24 23 19 17 14 12 11 12 13 11 10 9 12 23 23 22 22 17 7 6 3 2 6 2 1 1 3 2 4 3 2 3 7 5 11 7 4 9 11 11 16 21 28
Wind_Direction
15 17 20 9 14 12 16 21 19 18 20 24 22 22 27 27 30 39 62 72 77 93 116 142 140 137 133 93 51 111 135 137 145 145 150 150 141 105 91 101 77 73 121 70 75 74 70
16 14 15 13 15 13 17 24 26 26 32 35 27 29 48 38 52 61 54 63 78 86 118 128 131 140 120 66 69 105 113 132 142 143 137 149 138 117 92 66 66 102 94 78 56 47 47
14 12 13 16 16 17 20 31 36 29 37 49 44 42 42 43 52 50 58 63 63 70 104 115 126 143 95 78 81 102 116 128 138 140 127 134 135 114 108 93 104 95 71 34 25 19 34
16 11 8 16 16 21 26 35 50 44 43 46 31 26 38 48 45 55 50 56 70 74 94 106 109 125 83 73 87 103 114 122 138 128 123 107 117 107 64 105 50 56 51 101 320 4 4
13 13 12 11 23 21 33 37 55 60 48 49 46 42 43 53 63 65 68 60 61 74 90 94 104 105 48 80 97 106 116 116 130 116 105 110 108 82 75 74 43 17 157 142 46 36 354
18 20 21 14 16 28 27 39 48 58 53 42 45 37 37 52 70 62 80 63 70 74 61 78 66 75 75 69 89 105 114 122 125 119 103 76 68 75 36 60 182 168 99 48 29 337 12
20 23 25 18 13 21 28 29 41 41 33 40 46 46 37 51 43 95 64 77 78 53 65 76 76 86 83 88 78 103 117 125 110 72 57 26 68 88 91 85 119 126 101 88 21 13 345
24 23 21 25 18 18 26 29 32 35 10 349 2 29 41 45 35 60 81 71 62 87 58 68 66 68 64 70 71 65 101 82 76 77 25 38 70 260 81 79 92 64 86 5 303 345 5
27 24 22 23 24 22 28 36 29 30 26 3 350 350 3 21 24 359 40 57 41 51 71 38 34 34 30 58 44 28 58 79 70 59 56 96 150 334 94 52 76 43 90 29 231 324 73
24 25 24 22 23 23 20 28 34 31 30 28 15 4 360 345 352 16 16 5 23 24 71 343 0 21 2 9 42 34 38 59 49 107 75 75 348 88 80 74 93 107 31 58 21 36 267
20 26 24 23 23 21 20 13 22 33 39 40 37 22 10 359 352 10 1 5 5 26 62 310 340 2 18 63 24 20 33 61 80 74 83 262 48 73 63 52 62 147 108 61 68 72 41
20 21 24 24 22 20 19 16 8 14 27 34 34 31 25 12 10 352 347 6 20 43 18 344 356 358 13 27 35 26 44 66 101 69 45 67 65 57 142 63 67 109 78 44 56 78 24
17 16 22 22 25 21 17 14 10 1 359 13 27 30 26 20 351 351 17 11 45 77 295 329 335 0 52 20 29 32 31 17 82 87 9 351 346 318 128 84 53 75 64 348 354 9 225
14 14 17 20 20 23 17 16 12 9 355 354 1 23 28 21 19 22 57 55 65 249 280 281 358 350 51 22 45 19 51 19 32 74 105 129 332 202 175 199 161 78 141 149 211 261 281
10 11 13 17 17 19 18 14 12 12 9 352 358 18 23 21 25 54 95 49 168 213 279 275 327 71 7 38 126 89 69 140 295 40 133 134 339 312 207 349 113 167 68 180 100 188 292
3 5 10 12 14 15 17 15 11 8 5 3 351 330 10 12 32 64 71 116 89 222 350 28 358 10 24 330 51 74 201 199 185 229 122 212 110 227 213 76 36 183 149 92 49 202 278
358 355 3 8 10 11 12 15 12 7 2 360 17 14 2 1 32 61 96 143 155 139 94 70 9 344 13 358 1 14 160 196 178 149 95 139 90 280 59 206 183 123 214 84 126 173 191
345 349 354 2 6 10 9 9 12 11 7 7 30 44 1 1 36 43 100 151 154 144 112 128 113 14 39 357 3 13 3 281 158 143 65 13 121 198 212 333 177 166 181 155 130 230 224
333 337 350 356 3 5 8 10 7 11 11 12 35 8 9 11 92 27 148 92 29 145 175 152 130 121 100 47 21 34 2 349 155 122 144 184 37 10 348 15 42 220 195 165 117 110 212
322 333 341 352 359 4 5 7 11 10 10 19 14 20 24 49 72 112 124 153 140 207 287 209 172 153 129 111 145 297 323 96 193 172 136 127 157 200 200 200 152 236 207 196 166 208 199
316 327 339 346 353 359 5 9 10 13 13 17 32 58 32 335 10 77 80 164 132 236 221 201 248 237 171 173 187 205 207 242 154 180 117 120 234 194 253 257 242 253 251 207 211 221 209
303 311 331 342 344 350 357 8 12 13 17 31 43 24 56 68 56 78 356 206 218 293 172 279 220 172 189 206 201 210 179 200 207 148 159 141 248 99 273 264 233 255 245 232 228 233 247
304 309 322 330 338 344 351 360 9 14 21 41 39 40 93 8 8 92 219 202 203 153 235 239 223 335 264 250 257 268 255 266 217 165 184 161 189 60 264 318 298 280 235 203 205 220 223
300 313 321 325 334 340 346 356 6 13 22 30 26 18 22 277 170 224 199 189 230 224 240 247 206 169 264 308 308 280 264 253 234 230 188 148 142 146 288 344 331 258 247 174 200 235 218
288 298 303 313 320 332 342 348 0 5 11 13 17 11 345 274 234 270 236 225 246 244 227 247 249 232 274 323 347 328 332 282 106 127 206 161 144 297 282 252 292 319 84 134 176 282 223
276 284 287 293 304 311 326 340 344 354 357 0 358 358 339 311 245 241 244 236 220 219 294 209 231 221 179 108 98 253 245 256 217 134 49 119 100 141 56 308 268 257 345 0 184 300 310
268 272 280 282 285 288 297 310 329 330 336 340 345 345 342 292 292 230 244 253 225 211 264 281 178 175 187 134 175 204 261 204 218 197 179 136 170 210 215 247 280 248 224 348 20 258 334
267 269 274 276 278 278 277 278 290 303 308 317 328 334 336 280 287 278 246 239 257 236 177 172 355 219 80 175 176 209 199 233 267 191 175 178 165 195 195 218 269 176 99 163 223 294 316
265 270 276 276 272 271 268 270 273 281 294 295 300 309 315 296 272 293 287 272 259 253 244 211 251 191 212 101 230 87 243 245 186 248 113 251 199 184 194 216 223 192 247 265 288 295 300
Height
1522 1518 1516 1513 1510 1505 1500 1496 1491 1486 1480 1475 1469 1463 1458 1454 1447 1439 1434 1430 1427 1426 1427 1434 1440 1447 1451 1459 1466 1469 1471 1473 1477 1481 1485 1488 1490 1493 1502 1506 1508 1514 1518 1519 1520 1519 1520
1524 1520 1517 1514 1511 1507 1502 1498 1494 1489 1484 1479 1473 1468 1463 1460 1454 1448 1443 1438 1434 1432 1435 1440 1446 1454 1458 1464 1472 1475 1476 1477 1481 1484 1487 1491 1494 1495 1501 1508 1511 1517 1519 1521 1522 1523 1523
1525 1522 1518 1515 1512 1508 1504 1500 1497 1493 1488 1484 1479 1473 1469 1466 1462 1457 1452 1446 1443 1442 1441 1447 1452 1452 1457 1480 1477 1478 1480 1482 1485 1489 1489 1494 1495 1497 1503 1509 1516 1518 1522 1522 1523 1524 1525
1527 1523 1520 1516 1513 1509 1506 1503 1500 1496 1491 1487 1484 1479 1475 1471 1468 1464 1460 1455 1454 1452 1452 1456 1459 1460 1478 1482 1481 1484 1485 1486 1489 1492 1493 1496 1497 1500 1507 1513 1518 1523 1526 1530 1527 1526 1526
1529 1524 1521 1518 1514 1511 1508 1505 1503 1500 1496 1491 1488 1484 1480 1476 1473 1470 1467 1465 1462 1461 1463 1465 1466 1467 1487 1486 1486 1487 1489 1490 1492 1494 1496 1498 1500 1506 1512 1519 1531 1533 1541 1528 1528 1529 1529
1530 1526 1522 1519 1516 1513 1510 1507 1505 1503 1500 1496 1493 1489 1486 1482 1479 1477 1474 1474 1470 1470 1468 1468 1473 1479 1495 1491 1491 1491 1492 1493 1494 1496 1499 1501 1504 1512 1520 1525 1540 1530 1541 1531 1531 1533 1531
1532 1529 1525 1521 1518 1514 1512 1509 1507 1505 1503 1500 1497 1494 1491 1488 1484 1480 1477 1477 1477 1479 1476 1484 1489 1490 1495 1496 1495 1495 1496 1496 1498 1500 1508 1509 1516 1533 1527 1525 1527 1531 1531 1531 1532 1533 1532
1535 1531 1527 1523 1520 1516 1513 1510 1508 1506 1504 1503 1500 1498 1496 1494 1491 1489 1483 1479 1484 1490 1490 1492 1494 1495 1496 1496 1497 1497 1498 1499 1502 1510 1511 1518 1529 1527 1526 1526 1528 1531 1532 1537 1534 1532 1533
1537 1533 1530 1526 1522 1518 1515 1512 1509 1506 1505 1504 1502 1500 1499 1496 1495 1494 1490 1490 1490 1491 1492 1499 1500 1500 1502 1502 1503 1503 1503 1505 1509 1515 1518 1524 1529 1526 1526 1529 1530 1538 1537 1538 1540 1535 1535
1541 1536 1531 1528 1524 1520 1517 1514 1511 1508 1506 1505 1504 1502 1499 1498 1498 1495 1494 1494 1494 1494 1511 1515 1508 1509 1509 1506 1508 1508 1507 1510 1513 1522 1522 1528 1528 1527 1529 1532 1532 1535 1536 1536 1538 1542 1551
1544 1539 1534 1529 1526 1522 1519 1516 1513 1511 1508 1506 1504 1503 1501 1498 1497 1496 1497 1495 1494 1495 1535 1522 1516 1514 1512 1511 1516 1514 1513 1512 1518 1521 1524 1534 1531 1531 1533 1533 1531 1534 1535 1537 1539 1546 1558
1546 1542 1537 1532 1527 1524 1520 1517 1514 1513 1511 1509 1507 1504 1503 1502 1499 1497 1495 1495 1496 1514 1545 1527 1520 1520 1518 1516 1517 1518 1516 1517 1520 1524 1527 1532 1530 1531 1532 1532 1532 1534 1538 1544 1548 1553 1573
1547 1544 1539 1535 1530 1526 1522 1518 1515 1512 1510 1509 1508 1506 1502 1502 1501 1498 1496 1496 1514 1540 1535 1531 1527 1524 1522 1523 1522 1523 1525 1526 1529 1540 1549 1538 1535 1533 1532 1533 1533 1536 1545 1574 1565 1570 1558
1548 1545 1541 1537 1533 1528 1524 1519 1515 1512 1510 1508 1507 1505 1502 1500 1498 1498 1497 1501 1534 1543 1534 1526 1525 1524 1525 1524 1526 1527 1528 1535 1528 1532 1551 1556 1556 1533 1531 1532 1534 1538 1543 1567 1561 1570 1561
1549 1546 1543 1539 1535 1530 1526 1521 1516 1512 1510 1509 1507 1506 1503 1500 1498 1497 1499 1526 1545 1538 1531 1530 1529 1528 1527 1525 1526 1528 1530 1532 1530 1530 1536 1544 1537 1532 1532 1531 1534 1537 1548 1540 1554 1550 1549
1549 1547 1544 1540 1536 1532 1527 1523 1518 1514 1511 1509 1508 1506 1504 1501 1499 1498 1504 1533 1533 1532 1531 1531 1531 1528 1528 1527 1526 1526 1528 1527 1529 1529 1530 1533 1539 1533 1532 1532 1534 1535 1537 1549 1546 1555 1559
1549 1547 1544 1541 1538 1533 1529 1525 1521 1516 1511 1509 1508 1507 1507 1503 1501 1500 1526 1531 1528 1528 1529 1531 1532 1531 1530 1530 1528 1528 1529 1529 1528 1529 1529 1531 1535 1539 1535 1535 1535 1538 1539 1542 1546 1544 1559
1549 1547 1544 1542 1539 1535 1531 1526 1521 1517 1513 1510 1508 1509 1509 1506 1506 1516 1525 1522 1524 1526 1526 1526 1528 1529 1530 1531 1530 1530 1530 1529 1528 1529 1531 1532 1538 1545 1534 1530 1531 1532 1535 1539 1551 1554 1543
1547 1546 1544 1541 1538 1535 1532 1528 1523 1518 1514 1511 1510 1511 1510 1506 1522 1527 1525 1524 1525 1524 1524 1525 1526 1526 1527 1529 1531 1529 1529 1528 1528 1529 1531 1533 1539 1555 1536 1533 1531 1531 1532 1534 1538 1541 1536
1546 1544 1542 1540 1537 1534 1532 1529 1526 1521 1516 1514 1513 1516 1513 1512 1517 1522 1524 1525 1525 1524 1525 1525 1525 1525 1526 1527 1528 1529 1528 1528 1528 1529 1530 1532 1540 1538 1545 1526 1528 1530 1527 1530 1530 1533 1530
1545 1543 1541 1539 1537 1534 1532 1529 1526 1523 1520 1518 1517 1522 1522 1526 1522 1522 1524 1526 1526 1525 1525 1525 1526 1526 1526 1528 1526 1527 1526 1526 1527 1527 1529 1531 1537 1540 1533 1530 1529 1524 1521 1523 1523 1513 1515
1544 1542 1540 1539 1536 1534 1532 1530 1527 1524 1522 1521 1521 1522 1523 1524 1523 1523 1525 1525 1526 1525 1526 1526 1526 1523 1525 1527 1526 1527 1525 1525 1525 1528 1529 1531 1534 1534 1534 1521 1522 1520 1511 1509 1508 1507 1501
1543 1541 1539 1538 1536 1534 1532 1531 1529 1526 1523 1522 1522 1522 1522 1526 1526 1526 1525 1523 1523 1524 1524 1524 1525 1527 1526 1523 1522 1521 1522 1522 1521 1525 1530 1533 1535 1538 1529 1520 1519 1508 1489 1492 1492 1491 1486
1542 1540 1538 1537 1535 1533 1532 1531 1529 1528 1526 1525 1524 1523 1523 1525 1525 1525 1523 1522 1523 1522 1523 1522 1522 1524 1523 1522 1522 1519 1519 1519 1521 1522 1524 1531 1535 1539 1536 1528 1525 1476 1475 1478 1482 1477 1476
1540 1539 1538 1536 1534 1533 1532 1530 1530 1529 1528 1527 1526 1525 1523 1524 1523 1520 1521 1520 1519 1520 1520 1520 1520 1520 1521 1522 1524 1521 1521 1518 1521 1522 1523 1525 1529 1535 1541 1542 1503 1473 1477 1481 1480 1465 1458
1536 1536 1536 1534 1533 1532 1531 1530 1529 1529 1528 1527 1526 1526 1526 1524 1521 1519 1520 1520 1520 1519 1517 1514 1517 1517 1517 1519 1525 1521 1518 1511 1515 1522 1522 1524 1527 1533 1538 1542 1509 1478 1475 1475 1475 1475 1456
1531 1531 1532 1532 1531 1530 1529 1528 1528 1528 1528 1527 1526 1525 1524 1524 1520 1519 1520 1521 1519 1518 1519 1515 1513 1515 1516 1519 1521 1524 1523 1514 1514 1517 1523 1521 1524 1519 1521 1521 1500 1475 1472 1472 1478 1472 1458
1525 1525 1526 1527 1527 1527 1527 1526 1526 1525 1525 1526 1525 1524 1524 1522 1518 1516 1516 1516 1518 1517 1517 1517 1517 1514 1517 1519 1519 1517 1521 1513 1512 1508 1513 1516 1518 1519 1517 1520 1511 1468 1472 1474 1464 1458 1458
1520 1519 1520 1521 1521 1521 1521 1522 1521 1521 1522 1523 1522 1522 1521 1520 1516 1512 1510 1510 1511 1512 1514 1511 1513 1511 1510 1515 1516 1516 1515 1515 1509 1504 1501 1508 1495 1500 1498 1481 1464 1465 1462 1461 1460 1458 1456